Weather History for Bloomington, IN

Change the Weather History Date:

Wednesday, January 9, 2013

  Actual Average Record
Temperature  
Mean Temperature 41 °F 29 °F  
Max Temperature 51 °F 38 °F 54 °F (2006)
Min Temperature 30 °F 20 °F -9 °F (1999)
Degree Days  
Heating Degree Days 24 36  
Month to date heating degree days 354 324  
Since 1 July heating degree days 2368 2397  
Cooling Degree Days 0 0  
Month to date cooling degree days 0 0  
Year to date cooling degree days 0 0  
Moisture  
Dew Point 35 °F    
Average Humidity 73    
Maximum Humidity 100    
Minimum Humidity 46    
Precipitation  
Precipitation 0.00 in 0.12 in 0.02 in (2007)
Month to date precipitation T 1.16  
Year to date precipitation T 1.16  
Sea Level Pressure  
Sea Level Pressure 30.34 in    
Wind  
Wind Speed 5 mph (WSW)    
Max Wind Speed 17 mph    
Max Gust Speed 26 mph    
Visibility 8 miles    
Events Rain    
T = Trace of Precipitation, MM = Missing Value Source: NWS Daily Summary

Daily Weather History Graph

Daily Weather History Graph

Search for Another Location

Airport:

Trip Planner

Search our weather history database for the weather conditions in past years. The results will help you decide how hot, cold, wet, or windy it might be!

Date:

Astronomy

Jan. 09, 2013 Rise Set
Actual Time 8:05 AM EST 5:42 PM EST
Civil Twilight 7:36 AM EST 6:11 PM EST
Nautical Twilight 7:02 AM EST 6:44 PM EST
Astronomical Twilight 6:30 AM EST 7:17 PM EST
Moon 5:44 AM EST (1/9) 3:43 PM EST (1/9)
Length of Visible Light 10h 35m
Length of Day
9h 36m
Waning Crescent, 6% of the Moon is Illuminated
Jan 9
Waning Crescent
Jan 11
New
Jan 18
First Quarter
Jan 26
Full
Feb 3
Last Quarter

Hourly Weather History & Observations

Time (EST) Temp. Windchill Dew Point Humidity Pressure Visibility Wind Dir Wind Speed Gust Speed Precip Events Conditions
12:53 AM 39.9 °F 35.1 °F 30.9 °F 70% 30.20 in 10.0 mi South 6.9 mph - N/A   Overcast
1:53 AM 43.0 °F 38.8 °F 32.0 °F 65% 30.20 in 9.0 mi SSW 6.9 mph - 0.00 in Rain Light Rain
2:53 AM 43.0 °F 38.2 °F 32.0 °F 65% 30.21 in 10.0 mi SW 8.1 mph - 0.00 in   Overcast
3:53 AM 44.1 °F 40.8 °F 33.1 °F 65% 30.22 in 10.0 mi SW 5.8 mph - N/A   Overcast
4:53 AM 46.0 °F 39.9 °F 35.1 °F 66% 30.24 in 10.0 mi WSW 13.8 mph 25.3 mph 0.00 in Rain Light Rain
5:02 AM 44.6 °F 38.4 °F 35.6 °F 71% 30.23 in 8.0 mi West 12.7 mph 26.5 mph 0.00 in Rain Light Rain
5:30 AM 42.8 °F 36.2 °F 37.4 °F 81% 30.23 in 9.0 mi West 12.7 mph 20.7 mph 0.00 in Rain Light Rain
5:53 AM 42.1 °F 36.6 °F 37.9 °F 85% 30.26 in 10.0 mi WSW 9.2 mph - 0.00 in Rain Light Rain
6:53 AM 41.0 °F 35.8 °F 39.0 °F 93% 30.28 in 4.0 mi WSW 8.1 mph - 0.00 in Rain Rain
7:19 AM 39.2 °F 33.0 °F 37.4 °F 93% 30.28 in 2.5 mi WSW 9.2 mph - N/A Rain Rain
7:28 AM 39.2 °F 32.5 °F 37.4 °F 93% 30.28 in 3.0 mi SW 10.4 mph - N/A Rain Rain
7:41 AM 41.0 °F 35.8 °F 39.2 °F 93% 30.29 in 3.0 mi WSW 8.1 mph - N/A Rain Light Rain
7:53 AM 39.9 °F 34.5 °F 39.0 °F 97% 30.30 in 5.0 mi WSW 8.1 mph - N/A Rain Light Rain
8:15 AM 41.0 °F 35.2 °F 39.2 °F 93% 30.30 in 5.0 mi WSW 9.2 mph - N/A   Overcast
8:53 AM 42.1 °F 37.1 °F 39.9 °F 92% 30.33 in 4.0 mi WSW 8.1 mph - N/A   Overcast
9:53 AM 42.1 °F 38.4 °F 39.9 °F 92% 30.36 in 5.0 mi West 5.8 mph - N/A   Clear
10:53 AM 45.0 °F 40.6 °F 39.9 °F 82% 30.37 in 10.0 mi WSW 8.1 mph - N/A   Clear
11:53 AM 46.0 °F 41.9 °F 39.0 °F 76% 30.37 in 10.0 mi WSW 8.1 mph - N/A   Clear
1:53 PM 48.9 °F - 37.0 °F 64% 30.36 in 10.0 mi WNW 6.9 mph - N/A   Clear
2:53 PM 50.0 °F - 37.0 °F 61% 30.36 in 10.0 mi WSW 4.6 mph - N/A   Clear
3:53 PM 51.1 °F - 36.0 °F 56% 30.38 in 10.0 mi West 8.1 mph - N/A   Clear
4:53 PM 50.0 °F - 30.9 °F 48% 30.40 in 10.0 mi Calm Calm - N/A   Clear
5:53 PM 44.1 °F - 32.0 °F 63% 30.43 in 10.0 mi Calm Calm - N/A   Clear
6:53 PM 37.0 °F - 32.0 °F 82% 30.46 in 10.0 mi Calm Calm - N/A   Clear
7:53 PM 33.1 °F - 30.0 °F 89% 30.47 in 10.0 mi Calm Calm - N/A   Clear
8:53 PM 33.1 °F - 30.0 °F 89% 30.49 in 10.0 mi Calm Calm - N/A   Clear
9:53 PM 32.0 °F - 30.0 °F 92% 30.51 in 10.0 mi Calm Calm - N/A   Clear
10:53 PM 32.0 °F - 28.9 °F 88% 30.49 in 7.0 mi Calm Calm - N/A   Clear
11:53 PM 30.9 °F - 28.9 °F 92% 30.51 in 7.0 mi Calm Calm - N/A   Clear